Location: Moscow
(55.7500°N, 37.5830°E)
Time: 13:39:20
(UTC+03:00)

S-56A Canister/Altair - Pass Details

Date: 04 December 2021
Orbit: 633 x 2499 km, 38.9° (Epoch: 17 January)

Event Time Altitude Azimuth Distance (km) Brightness Sun altitude
Rises 23:40:14 0° 211° (SSW) 5,235 - -55.8°
Reaches altitude 10° 23:45:53 10° 191° (SSW) 3,814 - -56.0°
Maximum altitude 23:50:36 15° 162° (SSE) 3,058 - -56.2°
Drops below altitude 10° 23:54:33 10° 130° (SE) 3,087 - -56.3°
Sets 23:58:18 0° 107° (ESE) 3,725 - -56.4°
